Year,Month,Day,Hour,Minute,Value (Times are PST for temperature in C)
2015,02,21,00,00,7.20
2015,02,21,00,01,7.20
2015,02,21,00,02,7.20
2015,02,21,00,03,7.20
2015,02,21,00,04,7.20
2015,02,21,00,05,7.20
2015,02,21,00,06,7.20
2015,02,21,00,07,7.20
2015,02,21,00,08,7.10
2015,02,21,00,09,7.10
2015,02,21,00,10,7.10
2015,02,21,00,11,7.10
2015,02,21,00,12,7.10
2015,02,21,00,13,7.10
2015,02,21,00,14,7.00
2015,02,21,00,15,7.00
2015,02,21,00,16,7.00
2015,02,21,00,17,7.00
2015,02,21,00,18,7.00
2015,02,21,00,19,6.90
2015,02,21,00,20,6.90
2015,02,21,00,21,6.90
2015,02,21,00,22,6.90
2015,02,21,00,23,6.90
2015,02,21,00,24,6.90
2015,02,21,00,25,6.80
2015,02,21,00,26,6.80
2015,02,21,00,27,6.80
2015,02,21,00,28,6.80
2015,02,21,00,29,6.80
2015,02,21,00,30,6.80
2015,02,21,00,31,6.80
2015,02,21,00,32,6.80
2015,02,21,00,33,6.70
2015,02,21,00,34,6.70
2015,02,21,00,35,6.70
2015,02,21,00,36,6.70
2015,02,21,00,37,6.70
2015,02,21,00,38,6.70
2015,02,21,00,39,6.70
2015,02,21,00,40,6.70
2015,02,21,00,41,6.70
2015,02,21,00,42,6.60
2015,02,21,00,43,6.60
2015,02,21,00,44,6.60
2015,02,21,00,45,6.60
2015,02,21,00,46,6.60
2015,02,21,00,47,6.60
2015,02,21,00,48,6.60
2015,02,21,00,49,6.60
2015,02,21,00,50,6.60
2015,02,21,00,51,6.60
2015,02,21,00,52,6.60
2015,02,21,00,53,6.50
2015,02,21,00,54,6.50
2015,02,21,00,55,6.50
2015,02,21,00,56,6.50
2015,02,21,00,57,6.50
2015,02,21,00,58,6.50
2015,02,21,00,59,6.40
2015,02,21,01,00,6.40
2015,02,21,01,01,6.40
2015,02,21,01,02,6.40
2015,02,21,01,03,6.40
2015,02,21,01,04,6.40
2015,02,21,01,05,6.40
2015,02,21,01,06,6.40
2015,02,21,01,07,6.40
2015,02,21,01,08,6.40
2015,02,21,01,09,6.40
2015,02,21,01,10,6.40
2015,02,21,01,11,6.40
2015,02,21,01,12,6.40
2015,02,21,01,13,6.40
2015,02,21,01,14,6.40
2015,02,21,01,15,6.40
2015,02,21,01,16,6.30
2015,02,21,01,17,6.30
2015,02,21,01,18,6.30
2015,02,21,01,19,6.30
2015,02,21,01,20,6.30
2015,02,21,01,21,6.30
2015,02,21,01,22,6.30
2015,02,21,01,23,6.30
2015,02,21,01,24,6.30
2015,02,21,01,25,6.30
2015,02,21,01,26,6.30
2015,02,21,01,27,6.30
2015,02,21,01,28,6.30
2015,02,21,01,29,6.20
2015,02,21,01,30,6.20
2015,02,21,01,31,6.20
2015,02,21,01,32,6.20
2015,02,21,01,33,6.20
2015,02,21,01,34,6.20
2015,02,21,01,35,6.20
2015,02,21,01,36,6.20
2015,02,21,01,37,6.20
2015,02,21,01,38,6.20
2015,02,21,01,39,6.20
2015,02,21,01,40,6.20
2015,02,21,01,41,6.20
2015,02,21,01,42,6.10
2015,02,21,01,43,6.10
2015,02,21,01,44,6.10
2015,02,21,01,45,6.10
2015,02,21,01,46,6.10
2015,02,21,01,47,6.10
2015,02,21,01,48,6.10
2015,02,21,01,49,6.10
2015,02,21,01,50,6.10
2015,02,21,01,51,6.10
2015,02,21,01,52,6.00
2015,02,21,01,53,6.00
2015,02,21,01,54,6.00
2015,02,21,01,55,6.00
2015,02,21,01,56,6.00
2015,02,21,01,57,5.90
2015,02,21,01,58,5.90
2015,02,21,01,59,5.90
2015,02,21,02,00,5.90
2015,02,21,02,01,5.80
2015,02,21,02,02,5.80
2015,02,21,02,03,5.80
2015,02,21,02,04,5.80
2015,02,21,02,05,5.80
2015,02,21,02,06,5.70
2015,02,21,02,07,5.70
2015,02,21,02,08,5.70
2015,02,21,02,09,5.80
2015,02,21,02,10,5.80
2015,02,21,02,11,5.80
2015,02,21,02,12,5.80
2015,02,21,02,13,5.80
2015,02,21,02,14,5.80
2015,02,21,02,15,5.80
2015,02,21,02,16,5.80
2015,02,21,02,17,5.80
2015,02,21,02,18,5.70
2015,02,21,02,19,5.70
2015,02,21,02,20,5.70
2015,02,21,02,21,5.70
2015,02,21,02,22,5.70
2015,02,21,02,23,5.80
2015,02,21,02,24,5.80
2015,02,21,02,25,5.80
2015,02,21,02,26,5.80
2015,02,21,02,27,5.80
2015,02,21,02,28,5.80
2015,02,21,02,29,5.80
2015,02,21,02,30,5.80
2015,02,21,02,31,5.80
2015,02,21,02,32,5.80
2015,02,21,02,33,5.80
2015,02,21,02,34,5.70
2015,02,21,02,35,5.70
2015,02,21,02,36,5.70
2015,02,21,02,37,5.70
2015,02,21,02,38,5.70
2015,02,21,02,39,5.80
2015,02,21,02,40,5.80
2015,02,21,02,41,5.80
2015,02,21,02,42,5.80
2015,02,21,02,43,5.80
2015,02,21,02,44,5.80
2015,02,21,02,45,5.80
2015,02,21,02,46,5.80
2015,02,21,02,47,5.80
2015,02,21,02,48,5.80
2015,02,21,02,49,5.80
2015,02,21,02,50,5.80
2015,02,21,02,51,5.80
2015,02,21,02,52,5.80
2015,02,21,02,53,5.80
2015,02,21,02,54,5.80
2015,02,21,02,55,5.80
2015,02,21,02,56,5.80
2015,02,21,02,57,5.80
2015,02,21,02,58,5.80
2015,02,21,02,59,5.80
2015,02,21,03,00,5.80
2015,02,21,03,01,5.80
2015,02,21,03,02,5.80
2015,02,21,03,03,5.80
2015,02,21,03,04,5.80
2015,02,21,03,05,5.80
2015,02,21,03,06,5.80
2015,02,21,03,07,5.80
2015,02,21,03,08,5.80
2015,02,21,03,09,5.80
2015,02,21,03,10,5.80
2015,02,21,03,11,5.80
2015,02,21,03,12,5.70
2015,02,21,03,13,5.70
2015,02,21,03,14,5.70
2015,02,21,03,15,5.70
2015,02,21,03,16,5.70
2015,02,21,03,17,5.70
2015,02,21,03,18,5.70
2015,02,21,03,19,5.70
2015,02,21,03,20,5.60
2015,02,21,03,21,5.60
2015,02,21,03,22,5.60
2015,02,21,03,23,5.60
2015,02,21,03,24,5.60
2015,02,21,03,25,5.60
2015,02,21,03,26,5.50
2015,02,21,03,27,5.50
2015,02,21,03,28,5.50
2015,02,21,03,29,5.50
2015,02,21,03,30,5.40
2015,02,21,03,31,5.40
2015,02,21,03,32,5.40
2015,02,21,03,33,5.40
2015,02,21,03,34,5.40
2015,02,21,03,35,5.40
2015,02,21,03,36,5.40
2015,02,21,03,37,5.30
2015,02,21,03,38,5.30
2015,02,21,03,39,5.30
2015,02,21,03,40,5.20
2015,02,21,03,41,5.20
2015,02,21,03,42,5.20
2015,02,21,03,43,5.20
2015,02,21,03,44,5.10
2015,02,21,03,45,5.10
2015,02,21,03,46,5.10
2015,02,21,03,47,5.00
2015,02,21,03,48,5.00
2015,02,21,03,49,5.00
2015,02,21,03,50,4.90
2015,02,21,03,51,4.90
2015,02,21,03,52,4.90
2015,02,21,03,53,4.90
2015,02,21,03,54,4.80
2015,02,21,03,55,4.80
2015,02,21,03,56,4.80
2015,02,21,03,57,4.80
2015,02,21,03,58,4.70
2015,02,21,03,59,4.70
2015,02,21,04,00,4.70
2015,02,21,04,01,4.60
2015,02,21,04,02,4.60
2015,02,21,04,03,4.60
2015,02,21,04,04,4.60
2015,02,21,04,05,4.60
2015,02,21,04,06,4.60
2015,02,21,04,07,4.50
2015,02,21,04,08,4.60
2015,02,21,04,09,4.50
2015,02,21,04,10,4.50
2015,02,21,04,11,4.50
2015,02,21,04,12,4.60
2015,02,21,04,13,4.60
2015,02,21,04,14,4.60
2015,02,21,04,15,4.60
2015,02,21,04,16,4.60
2015,02,21,04,17,4.60
2015,02,21,04,18,4.60
2015,02,21,04,19,4.60
2015,02,21,04,20,4.60
2015,02,21,04,21,4.60
2015,02,21,04,22,4.60
2015,02,21,04,23,4.60
2015,02,21,04,24,4.60
2015,02,21,04,25,4.60
2015,02,21,04,26,4.60
2015,02,21,04,27,4.60
2015,02,21,04,28,4.60
2015,02,21,04,29,4.60
2015,02,21,04,30,4.60
2015,02,21,04,31,4.60
2015,02,21,04,32,4.60
2015,02,21,04,33,4.60
2015,02,21,04,34,4.60
2015,02,21,04,35,4.60
2015,02,21,04,36,4.60
2015,02,21,04,37,4.60
2015,02,21,04,38,4.50
2015,02,21,04,39,4.50
2015,02,21,04,40,4.50
2015,02,21,04,41,4.50
2015,02,21,04,42,4.50
2015,02,21,04,43,4.50
2015,02,21,04,44,4.40
2015,02,21,04,45,4.40
2015,02,21,04,46,4.40
2015,02,21,04,47,4.40
2015,02,21,04,48,4.40
2015,02,21,04,49,4.40
2015,02,21,04,50,4.40
2015,02,21,04,51,4.40
2015,02,21,04,52,4.40
2015,02,21,04,53,4.50
2015,02,21,04,54,4.50
2015,02,21,04,55,4.60
2015,02,21,04,56,4.60
2015,02,21,04,57,4.60
2015,02,21,04,58,4.70
2015,02,21,04,59,4.70
2015,02,21,05,00,4.70
2015,02,21,05,01,4.70
2015,02,21,05,02,4.80
2015,02,21,05,03,4.80
2015,02,21,05,04,4.80
2015,02,21,05,05,4.80
2015,02,21,05,06,4.80
2015,02,21,05,07,4.90
2015,02,21,05,08,4.90
2015,02,21,05,09,4.90
2015,02,21,05,10,4.90
2015,02,21,05,11,5.00
2015,02,21,05,12,5.00
2015,02,21,05,13,5.00
2015,02,21,05,14,5.10
2015,02,21,05,15,5.10
2015,02,21,05,16,5.10
2015,02,21,05,17,5.10
2015,02,21,05,18,5.10
2015,02,21,05,19,5.10
2015,02,21,05,20,5.10
2015,02,21,05,21,5.10
2015,02,21,05,22,5.00
2015,02,21,05,23,5.00
2015,02,21,05,24,5.10
2015,02,21,05,25,5.10
2015,02,21,05,26,5.10
2015,02,21,05,27,5.00
2015,02,21,05,28,5.00
2015,02,21,05,29,5.00
2015,02,21,05,30,5.00
2015,02,21,05,31,5.00
2015,02,21,05,32,5.00
2015,02,21,05,33,5.00
2015,02,21,05,34,5.00
2015,02,21,05,35,5.00
2015,02,21,05,36,4.90
2015,02,21,05,37,4.90
2015,02,21,05,38,4.90
2015,02,21,05,39,4.90
2015,02,21,05,40,4.90
2015,02,21,05,41,5.00
2015,02,21,05,42,4.90
2015,02,21,05,43,5.00
2015,02,21,05,44,4.90
2015,02,21,05,45,4.90
2015,02,21,05,46,5.00
2015,02,21,05,47,5.00
2015,02,21,05,48,5.00
2015,02,21,05,49,5.00
2015,02,21,05,50,5.00
2015,02,21,05,51,5.00
2015,02,21,05,52,5.00
2015,02,21,05,53,5.00
2015,02,21,05,54,5.00
2015,02,21,05,55,5.00
2015,02,21,05,56,5.00
2015,02,21,05,57,4.90
2015,02,21,05,58,4.90
2015,02,21,05,59,4.90
2015,02,21,06,00,4.90
2015,02,21,06,01,4.80
2015,02,21,06,02,4.80
2015,02,21,06,03,4.80
2015,02,21,06,04,4.80
2015,02,21,06,05,4.70
2015,02,21,06,06,4.70
2015,02,21,06,07,4.70
2015,02,21,06,08,4.70
2015,02,21,06,09,4.60
2015,02,21,06,10,4.60
2015,02,21,06,11,4.60
2015,02,21,06,12,4.60
2015,02,21,06,13,4.60
2015,02,21,06,14,4.60
2015,02,21,06,15,4.60
2015,02,21,06,16,4.50
2015,02,21,06,17,4.50
2015,02,21,06,18,4.50
2015,02,21,06,19,4.50
2015,02,21,06,20,4.50
2015,02,21,06,21,4.50
2015,02,21,06,22,4.50
2015,02,21,06,23,4.50
2015,02,21,06,24,4.50
2015,02,21,06,25,4.50
2015,02,21,06,26,4.50
2015,02,21,06,27,4.50
2015,02,21,06,28,4.60
2015,02,21,06,29,4.60
2015,02,21,06,30,4.60
2015,02,21,06,31,4.60
2015,02,21,06,32,4.60
2015,02,21,06,33,4.60
2015,02,21,06,34,4.60
2015,02,21,06,35,4.60
2015,02,21,06,36,4.60
2015,02,21,06,37,4.60
2015,02,21,06,38,4.60
2015,02,21,06,39,4.60
2015,02,21,06,40,4.60
2015,02,21,06,41,4.60
2015,02,21,06,42,4.60
2015,02,21,06,43,4.60
2015,02,21,06,44,4.60
2015,02,21,06,45,4.60
2015,02,21,06,46,4.60
2015,02,21,06,47,4.60
2015,02,21,06,48,4.60
2015,02,21,06,49,4.60
2015,02,21,06,50,4.60
2015,02,21,06,51,4.60
2015,02,21,06,52,4.60
2015,02,21,06,53,4.60
2015,02,21,06,54,4.60
2015,02,21,06,55,4.60
2015,02,21,06,56,4.60
2015,02,21,06,57,4.60
2015,02,21,06,58,4.60
2015,02,21,06,59,4.60
2015,02,21,07,00,4.60
2015,02,21,07,01,4.60
2015,02,21,07,02,4.60
2015,02,21,07,03,4.60
2015,02,21,07,04,4.60
2015,02,21,07,05,4.60
2015,02,21,07,06,4.60
2015,02,21,07,07,4.60
2015,02,21,07,08,4.60
2015,02,21,07,09,4.60
2015,02,21,07,10,4.60
2015,02,21,07,11,4.60
2015,02,21,07,12,4.60
2015,02,21,07,13,4.60
2015,02,21,07,14,4.60
2015,02,21,07,15,4.60
2015,02,21,07,16,4.60
2015,02,21,07,17,4.60
2015,02,21,07,18,4.60
2015,02,21,07,19,4.60
2015,02,21,07,20,4.60
2015,02,21,07,21,4.60
2015,02,21,07,22,4.60
2015,02,21,07,23,4.60
2015,02,21,07,24,4.60
2015,02,21,07,25,4.60
2015,02,21,07,26,4.60
2015,02,21,07,27,4.60
2015,02,21,07,28,4.60
2015,02,21,07,29,4.60
2015,02,21,07,30,4.70
2015,02,21,07,31,4.70
2015,02,21,07,32,4.70
2015,02,21,07,33,4.70
2015,02,21,07,34,4.70
2015,02,21,07,35,4.70
2015,02,21,07,36,4.70
2015,02,21,07,37,4.80
2015,02,21,07,38,4.80
2015,02,21,07,39,4.80
2015,02,21,07,40,4.90
2015,02,21,07,41,4.90
2015,02,21,07,42,4.90
2015,02,21,07,43,5.00
2015,02,21,07,44,5.10
2015,02,21,07,45,5.10
2015,02,21,07,46,5.20
2015,02,21,07,47,5.20
2015,02,21,07,48,5.30
2015,02,21,07,49,5.30
2015,02,21,07,50,5.40
2015,02,21,07,51,5.50
2015,02,21,07,52,5.60
2015,02,21,07,53,5.60
2015,02,21,07,54,5.70
2015,02,21,07,55,5.80
2015,02,21,07,56,5.80
2015,02,21,07,57,5.80
2015,02,21,07,58,5.80
2015,02,21,07,59,5.80
2015,02,21,08,00,5.80
2015,02,21,08,01,5.80
2015,02,21,08,02,5.80
2015,02,21,08,03,5.80
2015,02,21,08,04,5.80
2015,02,21,08,05,5.80
2015,02,21,08,06,5.90
2015,02,21,08,07,5.90
2015,02,21,08,08,6.00
2015,02,21,08,09,6.00
2015,02,21,08,10,6.10
2015,02,21,08,11,6.20
2015,02,21,08,12,6.20
2015,02,21,08,13,6.20
2015,02,21,08,14,6.20
2015,02,21,08,15,6.20
2015,02,21,08,16,6.20
2015,02,21,08,17,6.20
2015,02,21,08,18,6.30
2015,02,21,08,19,6.40
2015,02,21,08,20,6.40
2015,02,21,08,21,6.40
2015,02,21,08,22,6.40
2015,02,21,08,23,6.40
2015,02,21,08,24,6.40
2015,02,21,08,25,6.40
2015,02,21,08,26,6.50
2015,02,21,08,27,6.50
2015,02,21,08,28,6.60
2015,02,21,08,29,6.50
2015,02,21,08,30,6.60
2015,02,21,08,31,6.60
2015,02,21,08,32,6.60
2015,02,21,08,33,6.60
2015,02,21,08,34,6.60
2015,02,21,08,35,6.70
2015,02,21,08,36,6.70
2015,02,21,08,37,6.80
2015,02,21,08,38,6.90
2015,02,21,08,39,7.00
2015,02,21,08,40,7.10
2015,02,21,08,41,7.20
2015,02,21,08,42,7.20
2015,02,21,08,43,7.30
2015,02,21,08,44,7.30
2015,02,21,08,45,7.40
2015,02,21,08,46,7.40
2015,02,21,08,47,7.50
2015,02,21,08,48,7.60
2015,02,21,08,49,7.70
2015,02,21,08,50,7.70
2015,02,21,08,51,7.70
2015,02,21,08,52,7.70
2015,02,21,08,53,7.80
2015,02,21,08,54,7.90
2015,02,21,08,55,8.10
2015,02,21,08,56,8.10
2015,02,21,08,57,8.00
2015,02,21,08,58,8.00
2015,02,21,08,59,7.90
2015,02,21,09,00,7.90
2015,02,21,09,01,7.90
2015,02,21,09,02,7.80
2015,02,21,09,03,7.80
2015,02,21,09,04,7.80
2015,02,21,09,05,7.80
2015,02,21,09,06,7.80
2015,02,21,09,07,7.70
2015,02,21,09,08,7.70
2015,02,21,09,09,7.70
2015,02,21,09,10,7.70
2015,02,21,09,11,7.70
2015,02,21,09,12,7.70
2015,02,21,09,13,7.70
2015,02,21,09,14,7.70
2015,02,21,09,15,7.80
2015,02,21,09,16,7.80
2015,02,21,09,17,7.80
2015,02,21,09,18,7.80
2015,02,21,09,19,7.80
2015,02,21,09,20,7.80
2015,02,21,09,21,7.80
2015,02,21,09,22,7.80
2015,02,21,09,23,7.80
2015,02,21,09,24,7.80
2015,02,21,09,25,7.90
2015,02,21,09,26,7.90
2015,02,21,09,27,7.90
2015,02,21,09,28,8.00
2015,02,21,09,29,8.00
2015,02,21,09,30,8.10
2015,02,21,09,31,8.20
2015,02,21,09,32,8.20
2015,02,21,09,33,8.20
2015,02,21,09,34,8.30
2015,02,21,09,35,8.40
2015,02,21,09,36,8.40
2015,02,21,09,37,8.50
2015,02,21,09,38,8.60
2015,02,21,09,39,8.70
2015,02,21,09,40,8.80
2015,02,21,09,41,8.80
2015,02,21,09,42,8.90
2015,02,21,09,43,9.00
2015,02,21,09,44,9.10
2015,02,21,09,45,9.10
2015,02,21,09,46,9.10
2015,02,21,09,47,9.10
2015,02,21,09,48,9.00
2015,02,21,09,49,9.00
2015,02,21,09,50,9.00
2015,02,21,09,51,9.00
2015,02,21,09,52,9.00
2015,02,21,09,53,9.00
2015,02,21,09,54,9.00
2015,02,21,09,55,9.10
2015,02,21,09,56,9.20
2015,02,21,09,57,9.20
2015,02,21,09,58,9.20
2015,02,21,09,59,9.30
2015,02,21,10,00,9.40
2015,02,21,10,01,9.40
2015,02,21,10,02,9.50
2015,02,21,10,03,9.60
2015,02,21,10,04,9.60
2015,02,21,10,05,9.70
2015,02,21,10,06,9.80
2015,02,21,10,07,9.80
2015,02,21,10,08,9.90
2015,02,21,10,09,9.90
2015,02,21,10,10,10.00
2015,02,21,10,11,10.00
2015,02,21,10,12,10.00
2015,02,21,10,13,10.10
2015,02,21,10,14,10.10
2015,02,21,10,15,10.20
2015,02,21,10,16,10.30
2015,02,21,10,17,10.30
2015,02,21,10,18,10.40
2015,02,21,10,19,10.40
2015,02,21,10,20,10.40
2015,02,21,10,21,10.50
2015,02,21,10,22,10.60
2015,02,21,10,23,10.60
2015,02,21,10,24,10.60
2015,02,21,10,25,10.70
2015,02,21,10,26,10.70
2015,02,21,10,27,10.70
2015,02,21,10,28,10.80
2015,02,21,10,29,10.80
2015,02,21,10,30,10.90
2015,02,21,10,31,11.00
2015,02,21,10,32,11.10
2015,02,21,10,33,11.10
2015,02,21,10,34,11.20
2015,02,21,10,35,11.20
2015,02,21,10,36,11.20
2015,02,21,10,37,11.20
2015,02,21,10,38,11.30
2015,02,21,10,39,11.30
2015,02,21,10,40,11.30
2015,02,21,10,41,11.30
2015,02,21,10,42,11.30
2015,02,21,10,43,11.40
2015,02,21,10,44,11.50
2015,02,21,10,45,11.50
2015,02,21,10,46,11.70
2015,02,21,10,47,11.80
2015,02,21,10,48,11.90
2015,02,21,10,49,12.00
2015,02,21,10,50,12.00
2015,02,21,10,51,12.00
2015,02,21,10,52,12.00
2015,02,21,10,53,12.10
2015,02,21,10,54,12.10
2015,02,21,10,55,12.10
2015,02,21,10,56,12.10
2015,02,21,10,57,12.10
2015,02,21,10,58,12.10
2015,02,21,10,59,12.10
2015,02,21,11,00,12.00
2015,02,21,11,01,12.10
2015,02,21,11,02,12.10
2015,02,21,11,03,12.10
2015,02,21,11,04,12.10
2015,02,21,11,05,12.10
2015,02,21,11,06,12.20
2015,02,21,11,07,12.20
2015,02,21,11,08,12.20
2015,02,21,11,09,12.20
2015,02,21,11,10,12.10
2015,02,21,11,11,12.10
2015,02,21,11,12,12.00
2015,02,21,11,13,12.10
2015,02,21,11,14,12.10
2015,02,21,11,15,12.20
2015,02,21,11,16,12.30
2015,02,21,11,17,12.30
2015,02,21,11,18,12.30
2015,02,21,11,19,12.30
2015,02,21,11,20,12.30
2015,02,21,11,21,12.30
2015,02,21,11,22,12.30
2015,02,21,11,23,12.30
2015,02,21,11,24,12.30
2015,02,21,11,25,12.20
2015,02,21,11,26,12.20
2015,02,21,11,27,12.10
2015,02,21,11,28,12.10
2015,02,21,11,29,12.20
2015,02,21,11,30,12.20
2015,02,21,11,31,12.20
2015,02,21,11,32,12.20
2015,02,21,11,33,12.20
2015,02,21,11,34,12.20
2015,02,21,11,35,12.20
2015,02,21,11,36,12.20
2015,02,21,11,37,12.20
2015,02,21,11,38,12.20
2015,02,21,11,39,12.20
2015,02,21,11,40,12.20
2015,02,21,11,41,12.20
2015,02,21,11,42,12.20
2015,02,21,11,43,12.20
2015,02,21,11,44,12.20
2015,02,21,11,45,12.20
2015,02,21,11,46,12.10
2015,02,21,11,47,12.20
2015,02,21,11,48,12.20
2015,02,21,11,49,12.20
2015,02,21,11,50,12.20
2015,02,21,11,51,12.20
2015,02,21,11,52,12.20
2015,02,21,11,53,12.20
2015,02,21,11,54,12.20
2015,02,21,11,55,12.20
2015,02,21,11,56,12.20
2015,02,21,11,57,12.20
2015,02,21,11,58,12.20
2015,02,21,11,59,12.20
2015,02,21,12,00,12.10
2015,02,21,12,01,12.20
2015,02,21,12,02,12.10
2015,02,21,12,03,12.10
2015,02,21,12,04,12.10
2015,02,21,12,05,12.00
2015,02,21,12,06,12.10
2015,02,21,12,07,12.10
2015,02,21,12,08,12.10
2015,02,21,12,09,12.10
2015,02,21,12,10,12.10
2015,02,21,12,11,12.10
2015,02,21,12,12,12.10
2015,02,21,12,13,12.10
2015,02,21,12,14,12.10
2015,02,21,12,15,12.10
2015,02,21,12,16,12.10
2015,02,21,12,17,12.10
2015,02,21,12,18,12.10
2015,02,21,12,19,12.10
2015,02,21,12,20,12.10
2015,02,21,12,21,12.10
2015,02,21,12,22,12.20
2015,02,21,12,23,12.20
2015,02,21,12,24,12.30
2015,02,21,12,25,12.40
2015,02,21,12,26,12.40
2015,02,21,12,27,12.40
2015,02,21,12,28,12.40
2015,02,21,12,29,12.40
2015,02,21,12,30,12.30
2015,02,21,12,31,12.30
2015,02,21,12,32,12.40
2015,02,21,12,33,12.50
2015,02,21,12,34,12.50
2015,02,21,12,35,12.40
2015,02,21,12,36,12.40
2015,02,21,12,37,12.40
2015,02,21,12,38,12.40
2015,02,21,12,39,12.40
2015,02,21,12,40,12.40
2015,02,21,12,41,12.40
2015,02,21,12,42,12.40
2015,02,21,12,43,12.30
2015,02,21,12,44,12.30
2015,02,21,12,45,12.30
2015,02,21,12,46,12.20
2015,02,21,12,47,12.20
2015,02,21,12,48,12.20
2015,02,21,12,49,12.20
2015,02,21,12,50,12.30
2015,02,21,12,51,12.30
2015,02,21,12,52,12.30
2015,02,21,12,53,12.30
2015,02,21,12,54,12.30
2015,02,21,12,55,12.30
2015,02,21,12,56,12.20
2015,02,21,12,57,12.20
2015,02,21,12,58,12.10
2015,02,21,12,59,12.10
2015,02,21,13,00,12.10
2015,02,21,13,01,12.10
2015,02,21,13,02,12.10
2015,02,21,13,03,12.10
2015,02,21,13,04,12.10
2015,02,21,13,05,12.10
2015,02,21,13,06,12.20
2015,02,21,13,07,12.20
2015,02,21,13,08,12.20
2015,02,21,13,09,12.10
2015,02,21,13,10,12.10
2015,02,21,13,11,12.20
2015,02,21,13,12,12.30
2015,02,21,13,13,12.30
2015,02,21,13,14,12.30
2015,02,21,13,15,12.40
2015,02,21,13,16,12.30
2015,02,21,13,17,12.30
2015,02,21,13,18,12.20
2015,02,21,13,19,12.10
2015,02,21,13,20,12.10
2015,02,21,13,21,12.10
2015,02,21,13,22,12.00
2015,02,21,13,23,12.00
2015,02,21,13,24,11.90
2015,02,21,13,25,11.90
2015,02,21,13,26,11.90
2015,02,21,13,27,11.90
2015,02,21,13,28,12.00
2015,02,21,13,29,12.10
2015,02,21,13,30,12.20
2015,02,21,13,31,12.30
2015,02,21,13,32,12.40
2015,02,21,13,33,12.50
2015,02,21,13,34,12.50
2015,02,21,13,35,12.50
2015,02,21,13,36,12.50
2015,02,21,13,37,12.40
2015,02,21,13,38,12.40
2015,02,21,13,39,12.30
2015,02,21,13,40,12.20
2015,02,21,13,41,12.20
2015,02,21,13,42,12.10
2015,02,21,13,43,12.10
2015,02,21,13,44,12.10
2015,02,21,13,45,12.10
2015,02,21,13,46,12.10
2015,02,21,13,47,12.10
2015,02,21,13,48,12.10
2015,02,21,13,49,12.10
2015,02,21,13,50,12.10
2015,02,21,13,51,12.10
2015,02,21,13,52,12.10
2015,02,21,13,53,12.00
2015,02,21,13,54,12.00
2015,02,21,13,55,12.10
2015,02,21,13,56,12.10
2015,02,21,13,57,12.20
2015,02,21,13,58,12.20
2015,02,21,13,59,12.30
2015,02,21,14,00,12.30
2015,02,21,14,01,12.30
2015,02,21,14,02,12.40
2015,02,21,14,03,12.40
2015,02,21,14,04,12.40
2015,02,21,14,05,12.50
2015,02,21,14,06,12.50
2015,02,21,14,07,12.60
2015,02,21,14,08,12.60
2015,02,21,14,09,12.60
2015,02,21,14,10,12.50
2015,02,21,14,11,12.50
2015,02,21,14,12,12.50
2015,02,21,14,13,12.60
2015,02,21,14,14,12.60
2015,02,21,14,15,12.60
2015,02,21,14,16,12.60
2015,02,21,14,17,12.50
2015,02,21,14,18,12.50
2015,02,21,14,19,12.40
2015,02,21,14,20,12.40
2015,02,21,14,21,12.30
2015,02,21,14,22,12.30
2015,02,21,14,23,12.30
2015,02,21,14,24,12.30
2015,02,21,14,25,12.30
2015,02,21,14,26,12.30
2015,02,21,14,27,12.30
2015,02,21,14,28,12.30
2015,02,21,14,29,12.20
2015,02,21,14,30,12.20
2015,02,21,14,31,12.20
2015,02,21,14,32,12.20
2015,02,21,14,33,12.20
2015,02,21,14,34,12.20
2015,02,21,14,35,12.20
2015,02,21,14,36,12.20
2015,02,21,14,37,12.20
2015,02,21,14,38,12.20
2015,02,21,14,39,12.30
2015,02,21,14,40,12.20
2015,02,21,14,41,12.30
2015,02,21,14,42,12.30
2015,02,21,14,43,12.30
2015,02,21,14,44,12.30
2015,02,21,14,45,12.30
2015,02,21,14,46,12.30
2015,02,21,14,47,12.30
2015,02,21,14,48,12.30
2015,02,21,14,49,12.30
2015,02,21,14,50,12.30
2015,02,21,14,51,12.30
2015,02,21,14,52,12.30
2015,02,21,14,53,12.30
2015,02,21,14,54,12.30
2015,02,21,14,55,12.30
2015,02,21,14,56,12.30
2015,02,21,14,57,12.30
2015,02,21,14,58,12.30
2015,02,21,14,59,12.40
2015,02,21,15,00,12.40
2015,02,21,15,01,12.40
2015,02,21,15,02,12.40
2015,02,21,15,03,12.40
2015,02,21,15,04,12.50
2015,02,21,15,05,12.50
2015,02,21,15,06,12.50
2015,02,21,15,07,12.60
2015,02,21,15,08,12.60
2015,02,21,15,09,12.60
2015,02,21,15,10,12.60
2015,02,21,15,11,12.70
2015,02,21,15,12,12.70
2015,02,21,15,13,12.70
2015,02,21,15,14,12.70
2015,02,21,15,15,12.70
2015,02,21,15,16,12.70
2015,02,21,15,17,12.80
2015,02,21,15,18,12.80
2015,02,21,15,19,12.80
2015,02,21,15,20,12.70
2015,02,21,15,21,12.70
2015,02,21,15,22,12.70
2015,02,21,15,23,12.70
2015,02,21,15,24,12.70
2015,02,21,15,25,12.70
2015,02,21,15,26,12.70
2015,02,21,15,27,12.80
2015,02,21,15,28,12.80
2015,02,21,15,29,12.80
2015,02,21,15,30,12.80
2015,02,21,15,31,12.80
2015,02,21,15,32,12.70
2015,02,21,15,33,12.70
2015,02,21,15,34,12.60
2015,02,21,15,35,12.60
2015,02,21,15,36,12.50
2015,02,21,15,37,12.50
2015,02,21,15,38,12.40
2015,02,21,15,39,12.40
2015,02,21,15,40,12.40
2015,02,21,15,41,12.40
2015,02,21,15,42,12.40
2015,02,21,15,43,12.40
2015,02,21,15,44,12.30
2015,02,21,15,45,12.30
2015,02,21,15,46,12.30
2015,02,21,15,47,12.30
2015,02,21,15,48,12.30
2015,02,21,15,49,12.30
2015,02,21,15,50,12.30
2015,02,21,15,51,12.30
2015,02,21,15,52,12.30
2015,02,21,15,53,12.20
2015,02,21,15,54,12.20
2015,02,21,15,55,12.20
2015,02,21,15,56,12.20
2015,02,21,15,57,12.20
2015,02,21,15,58,12.20
2015,02,21,15,59,12.20
2015,02,21,16,00,12.10
2015,02,21,16,01,12.10
2015,02,21,16,02,12.20
2015,02,21,16,03,12.20
2015,02,21,16,04,12.20
2015,02,21,16,05,12.20
2015,02,21,16,06,12.20
2015,02,21,16,07,12.10
2015,02,21,16,08,12.10
2015,02,21,16,09,12.10
2015,02,21,16,10,12.10
2015,02,21,16,11,12.10
2015,02,21,16,12,12.10
2015,02,21,16,13,12.10
2015,02,21,16,14,12.00
2015,02,21,16,15,12.00
2015,02,21,16,16,12.00
2015,02,21,16,17,11.90
2015,02,21,16,18,11.90
2015,02,21,16,19,11.90
2015,02,21,16,20,12.00
2015,02,21,16,21,12.00
2015,02,21,16,22,12.10
2015,02,21,16,23,12.10
2015,02,21,16,24,12.10
2015,02,21,16,25,12.20
2015,02,21,16,26,12.20
2015,02,21,16,27,12.20
2015,02,21,16,28,12.20
2015,02,21,16,29,12.20
2015,02,21,16,30,12.20
2015,02,21,16,31,12.20
2015,02,21,16,32,12.20
2015,02,21,16,33,12.20
2015,02,21,16,34,12.20
2015,02,21,16,35,12.30
2015,02,21,16,36,12.30
2015,02,21,16,37,12.30
2015,02,21,16,38,12.30
2015,02,21,16,39,12.30
2015,02,21,16,40,12.30
2015,02,21,16,41,12.20
2015,02,21,16,42,12.20
2015,02,21,16,43,12.20
2015,02,21,16,44,12.10
2015,02,21,16,45,12.10
2015,02,21,16,46,12.10
2015,02,21,16,47,12.10
2015,02,21,16,48,12.10
2015,02,21,16,49,12.10
2015,02,21,16,50,12.00
2015,02,21,16,51,12.00
2015,02,21,16,52,11.90
2015,02,21,16,53,11.90
2015,02,21,16,54,11.90
2015,02,21,16,55,11.90
2015,02,21,16,56,11.90
2015,02,21,16,57,11.90
2015,02,21,16,58,11.90
2015,02,21,16,59,11.80
2015,02,21,17,00,11.80
2015,02,21,17,01,11.80
2015,02,21,17,02,11.80
2015,02,21,17,03,11.70
2015,02,21,17,04,11.70
2015,02,21,17,05,11.70
2015,02,21,17,06,11.70
2015,02,21,17,07,11.70
2015,02,21,17,08,11.60
2015,02,21,17,09,11.60
2015,02,21,17,10,11.60
2015,02,21,17,11,11.60
2015,02,21,17,12,11.60
2015,02,21,17,13,11.60
2015,02,21,17,14,11.60
2015,02,21,17,15,11.50
2015,02,21,17,16,11.50
2015,02,21,17,17,11.50
2015,02,21,17,18,11.40
2015,02,21,17,19,11.40
2015,02,21,17,20,11.40
2015,02,21,17,21,11.40
2015,02,21,17,22,11.40
2015,02,21,17,23,11.40
2015,02,21,17,24,11.30
2015,02,21,17,25,11.30
2015,02,21,17,26,11.30
2015,02,21,17,27,11.30
2015,02,21,17,28,11.30
2015,02,21,17,29,11.20
2015,02,21,17,30,11.20
2015,02,21,17,31,11.20
2015,02,21,17,32,11.10
2015,02,21,17,33,11.10
2015,02,21,17,34,11.10
2015,02,21,17,35,11.00
2015,02,21,17,36,11.00
2015,02,21,17,37,11.00
2015,02,21,17,38,10.90
2015,02,21,17,39,10.90
2015,02,21,17,40,10.80
2015,02,21,17,41,10.80
2015,02,21,17,42,10.80
2015,02,21,17,43,10.70
2015,02,21,17,44,10.70
2015,02,21,17,45,10.70